www.pogodaiklimat.ru

АРХИВ ПОГОДЫ в Медфорде

Время (UTC), дата Ветер
(напр.,м/с)
 
Видим.   Явления Облачность Т
(С)
Тd
(С)
f
(%)
Тe
(С)
Тes
(С)
Комфортность

P
(гПа)

Po
(гПа)
Тmin
(С)
Tmax
(С)
R
(мм)
SD
(см)
00:53 19.09 С  14 км  слабый дождь  10/8 1050 м
[средняя] 
+12.8  +11.1  89  +12  +12    1013.6  966.0         
01:14 19.09 СВ  3 км  сильный дождь, дымка  10/8 1050 м
[средняя] 
+12.2  +11.7  97  +11  +11      966.0         
01:24 19.09   5 км  слабый дождь, дымка  10/10 1050 м  +12.2  +11.7  97  +12  +12      966.3         
01:53 19.09   16 км  слабый дождь  10/10 1110 м  +12.8  +11.1  89  +12  +12    1013.9  966.3      10.4   
02:53 19.09 СЗ  16 км  слабый дождь  10/10 450 м  +12.2  +11.1  93  +11  +11    1014.3  966.6         
03:27 19.09   16 км    10/10 240 м  +12.8  +11.1  89  +12  +12      967.0         
03:36 19.09   16 км    10/10 240 м  +12.2  +11.7  97  +12  +12      967.0         
03:53 19.09   16 км    10/10 270 м  +12.8  +11.1  89  +12  +12    1014.7  967.0         
04:08 19.09   16 км    8/8 270 м  +12.2  +11.7  97  +12  +12      967.0         
04:34 19.09   16 км    8/8 450 м  +12.2  +11.7  97  +12  +12      967.0         
04:53 19.09   16 км    10/10 450 м  +12.2  +11.7  97  +12  +12    1014.8  967.3  +12.2  +15.0  11.9   
04:58 19.09   16 км    10/10 150 м  +12.2  +11.7  97  +12  +12      967.3         
05:11 19.09   16 км    10/10 150 м  +12.2  +11.7  97  +12  +12      967.3         
05:29 19.09   16 км    10/10 150 м  +12.2  +11.7  97  +12  +12      967.3         
05:53 19.09   16 км    10/10 510 м  +12.2  +11.1  93  +12  +12    1015.0  967.3         
06:53 19.09   16 км    10/10 990 м  +12.2  +11.7  97  +12  +12    1015.2  967.6         
07:26 19.09 С  16 км    10/10 270 м  +12.2  +11.7  97  +11  +11      967.9         
07:37 19.09   16 км    10/10 270 м  +12.2  +11.1  93  +12  +12      967.9         
07:44 19.09   16 км    10/10 270 м  +12.2  +11.1  93  +12  +12      967.9         
07:53 19.09   16 км    10/10 150 м  +12.2  +11.7  97  +12  +12    1015.6  967.9         
08:00 19.09   16 км    10/10 150 м  +12.2  +11.1  93  +12  +12      967.9         
08:10 19.09   16 км    10/10 120 м  +12.2  +11.1  93  +12  +12      967.9         
08:53 19.09   10 км  слабый дождь, дымка  10/10 960 м  +12.2  +11.1  93  +12  +12    1015.8  967.9         
09:53 19.09   16 км    10/10 1050 м  +12.2  +10.6  90  +12  +12    1015.8  968.3         
10:53 19.09   16 км    10/10 960 м  +12.2  +10.6  90  +12  +12    1016.1  968.6  +12.2  +12.8  0.5   
11:53 19.09   16 км    10/8 900 м
[средняя] 
+11.7  +10.0  89  +11  +11    1016.3  968.6         
12:53 19.09   14 км    10/10 720 м  +11.7  +10.0  89  +11  +11    1017.0  969.2         
13:53 19.09   16 км    8/8 30 м  +12.2  +10.6  90  +12  +12    1017.6  969.6      0.3   
14:53 19.09   16 км    5/5 600 м  +13.3  +10.6  84  +13  +13    1018.0  970.2         
15:53 19.09   16 км    8/8 1050 м  +13.9  +10.0  77  +14  +14    1018.2  970.2         
16:53 19.09 СВ  16 км    8/8 570 м  +15.6  +10.6  72  +16  +17    1018.1  970.2  +11.7  +15.6  0.3   
17:53 19.09 З  16 км    5/5 840 м  +16.1  +9.4  64  +16  +20    1018.0  970.2         
18:53 19.09 СЗ  16 км    10/10 1320 м  +16.1  +8.9  62  +15  +15    1018.2  970.5         
19:53 19.09 С  16 км    8/8 1500 м
[средняя] 
+17.8  +8.9  56  +18  +20    1017.7  969.9         
20:53 19.09 СЗ  16 км    8/0 2100 м
[средняя] 
+19.4  +7.8  47  +20  +23    1017.5  969.9         
21:53 19.09 З  16 км    8/8 1350 м  +19.4  +7.8  47  +20  +22    1017.0  969.6         
22:53 19.09 СЗ  16 км    10/0 2100 м
[средняя] 
+20.0  +7.8  45  +21  +22  комфорт  1017.0  969.6  +15.6  +20.6     
23:53 19.09 СЗ  16 км    8/8 1500 м  +19.4  +7.2  45  +20  +20    1017.1  969.6         
00:53 20.09 СЗ  16 км    2/0 2100 м
[средняя] 
+18.3  +8.3  52  +18  +19    1017.4  969.6         
01:53 20.09 СЗ  16 км    8/8 1950 м  +17.2  +8.3  56  +17  +17    1018.0  970.2         
02:53 20.09 СЗ  16 км    8/0 2100 м
[средняя] 
+15.6  +8.9  64  +16  +16    1018.3  970.5         
03:53 20.09 В  16 км    ясно  +13.3  +8.9  75  +13  +13    1018.6  970.8         
04:53 20.09 ЮЗ  16 км    ясно  +13.9  +8.9  72  +14  +14    1018.7  970.8  +13.3  +20.0     
05:53 20.09 ЮВ  16 км    ясно  +11.7  +8.9  83  +10  +10    1018.8  970.8         
06:53 20.09 З  16 км    ясно  +12.2  +7.8  74  +12  +12    1018.9  971.2         
07:53 20.09   16 км    8/0 3000 м
[средняя] 
+11.1  +8.3  83  +10  +10    1019.4  971.5         
08:53 20.09   16 км    10/0 2850 м
[средняя] 
+11.1  +8.3  83  +10  +10    1019.2  971.5         
09:53 20.09   16 км    10/0 2550 м
[средняя] 
+11.7  +8.9  83  +11  +11    1019.2  971.5         

 

Местоположение метеостанции Rogue Valley International Airport: широта 42.3811 долгота -122.8722 высота над уровнем моря 405 м.

В архиве по умолчанию представлена погода в Медфорде за последние 1-2 суток. Обновление информации о фактической погоде в базе происходит ежечасно! Архивные данные за месяц целиком и за предыдущие месяцы Вы можете получить, выбрав интересующий диапазон дат из раскрывающегося списка и нажав кнопку "Ввод!".

Внимание! Архив погоды МЕТАР в базе сайта в настоящее время начинается c 1 января 2011 г. Нет смысла пытаться выбрать более раннюю дату.

Внимание! Время в таблицах - всемирное. Для получения местного времени необходимо прибавить поправку, которая в Медфорде равна -8 ч.

Ветер - указаны скорость ветра в м/с и направление, откуда дует ветер: С - северный, СВ - северо-восточный, В - восточный, ЮВ - юго-восточный, Ю - южный, ЮЗ - юго-западный, З - западный, СЗ - северо-западный.
Видимость - горизонтальная дальность видимости в метрах или километрах. При видимости от 1 до 10 км при отсутствии осадков обычно наблюдается дымка, при ухудшении видимости до 1 км и менее - туман. В сухую погоду видимость может ухудшаться дымом, пылью или мглою.
Атмосферные явления - указаны явления, наблюдавшиеся в указанный момент времени.
Облачность - указаны через наклонную черту верхняя и нижняя облачность в баллах и высота нижней границы облаков в метрах. Внимание: облачность, как и прочие метеорологические величины в США измеряются автоматическими метеостанциями. Указанные значения в баллах носят условный характер и показывают процент времени, в течение которого, в среднем, лазерный луч высотомера отражался от облаков обратно.
T - Температура воздуха - температура, измеренная на высоте 2 м над землей.
Td - Температура точки росы - температура, при понижении до которой содержащийся в воздухе водяной пар достигнет насыщения.
f - Относительная влажность воздуха - влажноcть воздуха, измеренная на высоте 2 м над землей.
Te - Эффективная температура - температура, которую ощущает одетый по сезону человек в тени. Характеристика душности погоды. При расчете учитывается влияние влажности воздуха и скорости ветра на теплоощущения человека.
Tes - Эффективная температура на солнце - температура, которую ощущает человек, с поправкой на солнечный нагрев. Характеристика знойности погоды. Зависит от высоты солнца над горизонтом, облачности и скорости ветра. Ночью, в пасмурную погоду, а также при ветре 12 м/с и более поправка равна нулю.
P - Атмосферное давление - приведенное к уровню моря атмосферное давление.
Po - Атмосферное давление - измеренное на уровне метеостанции атмосферное давление.
Tmin - Минимальная температура - минимум температуры воздуха на высоте 2 м над землей.
Tmax - Максимальная температура - максимум температуры воздуха на высоте 2 м над землей.
R - Количество осадков - Количество выпавших осадков за 3 или 6 часов, мм.
SD - Снежный покров - Высота снежного покрова, см.